Terug naar catalogus

METEOR 2-11 DEB

ActiefPO
NORAD 40318·DEBRIS·🇷🇺 Russia

Gelanceerd Jul 5, 1984 vanaf Plesetsk Cosmodrome

Loading…

Volgende Passages (komende 24 uur)

TLE

VersSource: Space-Track

Epoch: Sep 13, 2026, 10:47 UTC

1 40318U 84072D   26256.44956410  .00001504  00000-0  10802-2 0  9994
2 40318  82.5282 307.9721 0020954 116.3631 304.6156 13.96258361597533

Volg METEOR 2-11 DEB in realtime met AllMySat

Download on the App Store